[[{"header":{"parameterUnit":"m.s-1","parameterCategory":1,"la1":30.2991,"la2":30.254,"lo1":-89.0895,"lo2":-89.0444,"dy":0.0017,"dx":0.0017,"nx":28,"ny":28,"refTime":"2023-08-12T09:00:00:Z","depth":0,"parameterNumber":2,"parameterNumberName":"U-component_of_WINDS"},"data":[0,0,0,0,0,0,0,0,0,0,0,0,0,0,0,0,0,0,0,0,0,0,0,0,0,0,0,0,0,0,0,0,0,0,0,0,0,0,0,0,0,0,0,0,0,0,0,0,0,0,0,0,0,0,0,0,0,0,4.9733,4.9734,0,4.9836,4.9837,4.9838,4.9721,4.9717,4.9712,4.9708,4.9818,4.9824,4.9831,0,0,0,0,0,0,0,0,0,0,0,0,0,4.944,4.9446,4.9733,4.9734,4.9736,4.9835,4.9837,4.9838,4.9722,4.9717,4.9711,4.9706,4.9815,4.9824,4.9832,0,0,0,0,0,0,0,0,0,0,0,0,0,4.9558,4.9448,4.9733,4.969,4.9687,4.9835,4.9837,4.9839,4.9723,4.9717,4.971,4.9704,4.9812,4.9823,4.9833,5.003,0,0,4.9865,4.987,0,0,0,0,0,0,0,0,4.9551,4.9569,4.9695,4.9693,4.969,4.9759,4.9773,4.9903,4.9725,4.971,4.9708,4.9701,4.9804,4.9814,4.9848,5.0035,5.004,4.9866,4.9873,4.9877,4.988,0,0,0,0,0,0,0,4.9543,4.9564,4.9774,4.9697,4.9694,4.9666,4.9676,4.9797,4.9793,4.971,4.9702,4.9716,4.9801,4.9838,4.985,5.0042,4.9866,4.9875,4.9882,4.9886,5.0396,5.0403,0,0,0,0,0,0,4.9539,4.9558,4.977,4.9777,4.9603,4.9677,4.9687,4.9743,4.9791,4.9792,4.9721,4.971,4.9824,4.9838,4.9853,5.0087,4.9877,4.9887,4.9893,5.0388,5.0397,5.0405,0,0,0,0,0,0,4.9534,4.956,4.9766,4.9665,4.9689,4.9689,4.9753,4.9749,4.9786,4.9799,4.9798,4.976,4.9819,4.9839,4.9987,5.0089,4.9892,4.9901,5.038,5.0391,5.0401,5.0556,0,0,0,0,0,0,4.9526,4.9558,4.9632,4.9667,4.9695,4.9897,4.9759,4.9756,4.9804,4.979,4.9835,4.9836,4.9815,4.9972,4.9997,5.01,4.9909,5.0371,5.0385,5.0398,5.0542,5.0571,5.0596,0,0,0,0,0,4.9516,4.9673,4.9637,4.9663,4.9787,4.9903,4.9919,4.9891,4.9813,4.9888,4.9896,4.9835,5.0074,4.9988,5.0016,5.0123,5.0364,5.0381,5.0397,5.053,5.0566,5.0596,0,0,0,0,0,0,4.9651,4.9677,4.9637,4.981,4.9855,4.9883,4.9977,4.9929,4.9999,4.9983,4.9946,4.9957,5.0115,5.0134,5.0038,5.0317,5.0206,5.0229,5.0298,5.0332,5.0359,5.0351,4.9918,0,0,0,0,0,4.9701,4.9792,4.981,4.9961,4.9985,4.9978,5.0027,5.0001,5.0047,5.0066,5.0085,5.0134,5.0219,5.0277,5.0357,5.0544,5.0553,5.0632,5.0659,5.0681,5.0701,5.0802,5.0838,5.0459,5.0458,5.0458,0,0,4.9805,4.983,4.989,4.9989,5.002,5.0117,4.9995,5.0101,5.0173,5.0083,5.0223,5.024,5.0291,5.046,5.0535,5.0481,5.0808,5.0702,5.072,5.0728,5.0823,5.0858,5.089,5.047,5.0468,5.0466,0,0,5.0044,5.0072,5.0201,5.0235,5.0285,5.0278,5.031,5.0345,5.0352,5.0492,5.0427,5.0512,5.0661,5.07,5.0739,5.0993,5.094,5.102,5.1161,5.126,5.129,5.1316,5.1407,5.144,5.104,5.1041,5.1041,0,5.0168,5.0308,5.0273,5.0385,5.043,5.0352,5.0482,5.0518,5.0592,5.0626,5.0563,5.0748,5.0777,5.0954,5.1016,5.105,5.1085,5.1015,5.1288,5.1314,5.1338,5.1424,5.1458,5.105,5.1049,5.1048,5.1047,0,5.0458,5.0557,5.0655,5.0726,5.0783,5.0904,5.0888,5.095,5.0919,5.092,5.1064,5.1096,5.1181,5.1221,5.1193,5.1395,5.1359,5.1293,5.1182,5.1384,5.1464,5.1497,5.1064,5.106,5.1057,5.1055,0,0,5.0785,5.0835,5.0872,5.0903,5.0952,5.1029,5.1146,5.1228,5.1281,5.1335,5.1433,5.1561,5.15,5.1545,5.152,5.1607,5.1806,5.153,5.1531,5.158,5.203,5.208,5.2118,5.1771,5.1777,5.1782,5.2026,0,5.1024,5.1226,5.1198,5.1392,5.1483,5.1411,5.1513,5.1555,5.1559,5.1638,5.1643,5.1733,5.1646,5.1673,5.1755,5.1764,5.1896,5.1746,5.1863,5.1867,5.1852,5.216,5.2212,5.2441,5.2057,5.2062,5.2066,0,5.133,5.1393,5.1597,5.1631,5.1668,5.1761,5.1833,5.1909,5.1956,5.1952,5.2003,5.1963,5.2081,5.1968,5.2131,5.203,5.2076,5.2088,5.2096,5.2106,5.1979,5.2178,5.2513,5.2548,5.2115,5.2111,5.2108,0,5.1548,5.1685,5.1823,5.1853,5.1897,5.1963,5.1985,5.2025,5.2075,5.2139,5.2172,5.225,5.2292,5.2354,5.2336,5.2255,5.2504,5.2389,5.2505,5.2506,5.2561,5.2558,5.2908,5.2591,5.2591,5.259,5.259,0,5.1818,5.1946,5.1922,5.2008,5.2148,5.2115,5.2256,5.2269,5.2305,5.2392,5.2335,5.2419,5.239,5.2473,5.246,5.2598,5.2618,5.2619,5.2614,5.2624,5.2624,5.2653,5.2637,5.2599,5.2597,5.2596,5.2594,0,5.2085,5.2075,5.2221,5.2251,5.2261,5.2364,5.2389,5.247,5.2469,5.2581,5.2605,5.2605,5.2699,5.2688,5.2794,5.2785,5.2956,5.2932,5.294,5.2934,5.3051,5.304,5.3433,5.3483,5.3134,5.3137,5.314,0,5.2258,5.2354,5.2393,5.2447,5.2473,5.2561,5.2612,5.2584,5.264,5.2699,5.2774,5.2862,5.2932,5.3086,5.3096,5.3177,5.3154,5.3286,5.3166,5.3173,5.3156,5.315,5.316,5.331,5.3314,5.3317,5.332,0,5.2566,5.2556,5.2631,5.2705,5.2767,5.2825,5.2876,5.2924,5.29,5.2966,5.3061,5.3115,5.3222,5.3311,5.3387,5.341,5.3363,5.3358,5.3389,5.34,5.34,5.3401,5.3004,5.3349,5.3346,5.3344,5.3342,5.3341,5.2792,5.2873,5.2913,5.2999,5.3034,5.3084,5.3161,5.317,5.3248,5.3332,5.3311,5.3418,5.3462,5.3559,5.3591,5.3675,5.3627,5.3672,5.3683,5.3695,5.3709,5.3387,5.3689,5.3688,5.3687,5.3686,5.3686,0,5.3096,5.3118,5.3197,5.327,5.3338,5.3285,5.3339,5.34,5.3494,5.3539,5.3608,5.3717,5.3803,5.382,5.3902,5.3967,5.3947,5.3989,5.3984,5.3991,5.3747,5.3712,5.4004,5.4004,5.4004,5.4004,5.4004,5.4004,5.3263,5.3398,5.3393,5.3545,5.3567,5.367,5.3706,5.3751,5.3786,5.391,5.3981,5.3991,5.4025,5.4109,5.4186,5.4188,5.4221,5.4273,5.4267,5.404,5.4008,5.3977,5.3944,5.4281,5.4281,5.4504,5.4506,5.4507]},{"header":{"parameterUnit":"m.s-1","parameterCategory":1,"la1":30.2991,"la2":30.254,"lo1":-89.0895,"lo2":-89.0444,"dy":0.0017,"dx":0.0017,"nx":28,"ny":28,"refTime":"2023-08-12T09:00:00:Z","depth":0,"parameterNumber":3,"parameterNumberName":"V-component_of_WINDS"},"data":[0,0,0,0,0,0,0,0,0,0,0,0,0,0,0,0,0,0,0,0,0,0,0,0,0,0,0,0,0,0,0,0,0,0,0,0,0,0,0,0,0,0,0,0,0,0,0,0,0,0,0,0,0,0,0,0,0,0,0.5774,0.5775,0,0.5857,0.5858,0.5859,0.5877,0.5876,0.5876,0.5875,0.5963,0.5966,0.5969,0,0,0,0,0,0,0,0,0,0,0,0,0,0.5633,0.5636,0.5774,0.5775,0.5776,0.5857,0.5858,0.5859,0.5877,0.5876,0.5876,0.5875,0.5962,0.5965,0.5969,0,0,0,0,0,0,0,0,0,0,0,0,0,0.5703,0.5637,0.5774,0.5795,0.5798,0.5857,0.5858,0.586,0.5877,0.5876,0.5876,0.5875,0.5961,0.5965,0.5969,0.6015,0,0,0.5983,0.5985,0,0,0,0,0,0,0,0,0.5699,0.5708,0.5791,0.5794,0.5797,0.5856,0.5841,0.5912,0.5878,0.5847,0.5875,0.5874,0.5928,0.5935,0.5953,0.6019,0.6022,0.5983,0.5986,0.5988,0.5989,0,0,0,0,0,0,0,0.5694,0.5705,0.5807,0.5792,0.5796,0.5801,0.581,0.5854,0.5892,0.585,0.5851,0.5861,0.593,0.5949,0.5955,0.6024,0.5983,0.5987,0.5989,0.5991,0.613,0.6131,0,0,0,0,0,0,0.5686,0.5701,0.5805,0.581,0.5745,0.5804,0.5814,0.5838,0.5891,0.5899,0.5861,0.5861,0.5942,0.595,0.5958,0.6014,0.5987,0.5992,0.5994,0.6129,0.613,0.6132,0,0,0,0,0,0,0.5683,0.5695,0.5801,0.5756,0.577,0.5807,0.5834,0.584,0.5859,0.59,0.5907,0.5874,0.5941,0.5952,0.6,0.6018,0.5994,0.5997,0.6128,0.613,0.6131,0.6127,0,0,0,0,0,0,0.5678,0.5693,0.5711,0.5756,0.5772,0.5841,0.5835,0.5842,0.5866,0.5867,0.5914,0.5921,0.5941,0.5993,0.6004,0.6023,0.6001,0.6126,0.6129,0.6131,0.6126,0.6129,0.6131,0,0,0,0,0,0.5673,0.5707,0.5712,0.5724,0.5794,0.5842,0.5852,0.5874,0.5867,0.5885,0.5912,0.5919,0.6014,0.5998,0.6011,0.6031,0.6126,0.6128,0.613,0.6125,0.6128,0.6131,0,0,0,0,0,0,0.5665,0.5714,0.5719,0.5768,0.5801,0.5845,0.5869,0.5877,0.5913,0.5912,0.5939,0.5949,0.5996,0.6018,0.6,0.6077,0.6069,0.6074,0.6061,0.6064,0.6067,0.6061,0.6005,0,0,0,0,0,0.5668,0.5702,0.5744,0.5783,0.5799,0.5831,0.5853,0.5867,0.5902,0.5916,0.5946,0.5981,0.6018,0.6042,0.6079,0.6129,0.614,0.6149,0.6152,0.6153,0.6158,0.6185,0.619,0.614,0.614,0.614,0,0,0.5676,0.5707,0.5728,0.5782,0.5809,0.5844,0.5842,0.588,0.5907,0.5922,0.5969,0.5992,0.6033,0.6081,0.6104,0.6102,0.6174,0.6156,0.6157,0.6161,0.6188,0.6193,0.6197,0.6141,0.6141,0.6141,0,0,0.5709,0.5736,0.5772,0.5798,0.5838,0.5859,0.5867,0.591,0.5926,0.5973,0.5985,0.6018,0.6082,0.611,0.6132,0.6174,0.6182,0.6185,0.6198,0.6225,0.6229,0.6232,0.6247,0.6252,0.6189,0.6189,0.6189,0,0.5715,0.5768,0.5789,0.5826,0.585,0.5864,0.59,0.5925,0.5976,0.5992,0.5988,0.6068,0.6096,0.6151,0.6161,0.6179,0.619,0.6181,0.6226,0.623,0.6234,0.6248,0.6254,0.6189,0.6189,0.6189,0.6189,0,0.5772,0.5809,0.5833,0.588,0.5906,0.5943,0.597,0.5994,0.6006,0.6027,0.6074,0.6108,0.6152,0.6166,0.6178,0.6223,0.622,0.6221,0.6213,0.6238,0.6252,0.6258,0.619,0.619,0.619,0.6189,0,0,0.5804,0.5861,0.5869,0.589,0.5935,0.5964,0.6001,0.6042,0.6063,0.6097,0.6128,0.6181,0.6182,0.6207,0.6223,0.6246,0.6277,0.6244,0.6245,0.6249,0.6328,0.6327,0.6333,0.6282,0.6283,0.6284,0.6324,0,0.5842,0.5908,0.5928,0.5983,0.6017,0.603,0.6062,0.6093,0.6113,0.6146,0.6169,0.6206,0.6203,0.6219,0.6242,0.6268,0.6293,0.6265,0.6312,0.6314,0.6302,0.6341,0.6341,0.6378,0.633,0.6331,0.6332,0,0.5896,0.593,0.5988,0.6027,0.6042,0.6071,0.611,0.614,0.6176,0.6189,0.6217,0.623,0.6269,0.6258,0.6313,0.6293,0.6314,0.6329,0.6331,0.6337,0.6325,0.6348,0.639,0.6395,0.6341,0.634,0.6339,0,0.5913,0.5973,0.6015,0.6033,0.608,0.61,0.612,0.6155,0.6178,0.6212,0.6228,0.6267,0.6288,0.6318,0.6341,0.6331,0.6393,0.6385,0.6406,0.6405,0.6419,0.6418,0.6465,0.6431,0.6431,0.6431,0.6431,0,0.5955,0.599,0.6023,0.605,0.6089,0.6111,0.615,0.6172,0.6202,0.6233,0.6247,0.6275,0.6304,0.6336,0.6355,0.6397,0.6407,0.6419,0.6423,0.6418,0.6416,0.6432,0.643,0.6433,0.6432,0.6432,0.6432,0,0.5981,0.6004,0.6051,0.6091,0.6102,0.613,0.6164,0.619,0.6211,0.6249,0.626,0.6292,0.6331,0.6356,0.6407,0.6419,0.6465,0.6469,0.6453,0.6455,0.6474,0.6472,0.6534,0.6543,0.6502,0.6503,0.6503,0,0.6006,0.6033,0.6075,0.6096,0.6116,0.615,0.6174,0.6197,0.6221,0.6262,0.6283,0.6323,0.6355,0.6417,0.6445,0.6483,0.6488,0.6507,0.6494,0.6488,0.6489,0.6487,0.649,0.651,0.651,0.651,0.651,0,0.6047,0.6057,0.609,0.6127,0.6154,0.6184,0.6215,0.6232,0.626,0.6286,0.6325,0.635,0.6401,0.644,0.648,0.6502,0.6511,0.6514,0.6521,0.6516,0.6505,0.6511,0.6459,0.6513,0.6512,0.6512,0.6512,0.6512,0.6074,0.6098,0.6132,0.6167,0.6192,0.622,0.6246,0.6269,0.6302,0.6344,0.6355,0.6396,0.643,0.6485,0.6508,0.654,0.6538,0.6548,0.6551,0.6553,0.6553,0.6499,0.6548,0.6548,0.6548,0.6548,0.6548,0,0.6117,0.6138,0.6171,0.6212,0.624,0.6245,0.6278,0.6302,0.6337,0.6368,0.6399,0.6444,0.6482,0.6512,0.6551,0.6571,0.6576,0.6581,0.658,0.6584,0.6553,0.6543,0.6576,0.6576,0.6576,0.6576,0.6576,0.6576,0.6142,0.6183,0.6197,0.6251,0.6273,0.6312,0.6331,0.6356,0.6381,0.643,0.646,0.648,0.651,0.6551,0.6586,0.6594,0.6608,0.6611,0.662,0.659,0.6587,0.6584,0.6575,0.6614,0.6614,0.6649,0.6649,0.665]}]]